This demonstration page uses our WeatherBlox Daily Observations layout. Learn more.

39.29038, -76.61219

Hourly Observations for December 15, 2017

Temp ( °F °C ) Dew Point ( °F °C ) Humidity (%) Winds ( mph kmh ) Pressure ( in mb ) Visibility ( mi km ) Precip ( " mm )
12:54 am 00:54 undefined 30 -1.1 10 -12.2 43 43 undefined N/A 30.09 1019 N/A 0 0
1:54 am 01:54 undefined 29 -1.7 10 -12.2 45 45 undefined N/A 30.09 1019 N/A 0 0
2:54 am 02:54 undefined 29 -1.7 10 -12.2 45 45 undefined N/A 30.12 1020 N/A 0 0
3:54 am 03:54 undefined 28 -2.2 9 -12.8 44 44 undefined N/A 30.12 1020 N/A 0 0
4:54 am 04:54 undefined 29 -1.7 11 -11.7 47 47 undefined N/A 30.12 1020 N/A 0 0
5:54 am 05:54 undefined 29 -1.7 11 -11.7 47 47 undefined N/A 30.09 1019 N/A 0 0
6:54 am 06:54 undefined 29 -1.7 13 -10.6 51 51 undefined N/A 30.09 1019 N/A 0 0
7:54 am 07:54 undefined 29 -1.7 12 -11.1 49 49 undefined N/A 30.09 1019 N/A 0 0
8:54 am 08:54 undefined 30 -1.1 11 -11.7 45 45 undefined N/A 30.09 1019 N/A 0 0
9:54 am 09:54 undefined 30 -1.1 12 -11.1 47 47 undefined N/A 30.09 1019 N/A 0 0
10:54 am 10:54 undefined 30 -1.1 12 -11.1 47 47 undefined N/A 30.06 1018 N/A 0 0
11:54 am 11:54 undefined 30 -1.1 13 -10.6 49 49 undefined N/A 30 1016 N/A 0 0
12:54 pm 12:54 undefined 30 -1.1 15 -9.4 54 54 undefined N/A 29.94 1014 N/A 0 0
1:54 pm 13:54 undefined 28 -2.2 20 -6.7 72 72 undefined N/A 29.91 1013 N/A 0.02 0.508
2:54 pm 14:54 undefined 27 -2.8 24 -4.4 89 89 undefined N/A 29.91 1013 N/A 0.04 1.016
3:54 pm 15:54 undefined 28 -2.2 24 -4.4 85 85 undefined N/A 29.91 1013 N/A 0.03 0.762
4:54 pm 16:54 undefined 29 -1.7 24 -4.4 82 82 undefined N/A 29.91 1013 N/A 0.01 0.254
5:54 pm 17:54 undefined 28 -2.2 23 -5 81 81 undefined N/A 29.91 1013 N/A 0 0
6:54 pm 18:54 undefined 28 -2.2 23 -5 81 81 undefined N/A 29.94 1014 N/A 0 0
7:54 pm 19:54 undefined 27 -2.8 22 -5.6 81 81 undefined N/A 29.94 1014 N/A 0 0
8:54 pm 20:54 undefined 26 -3.3 21 -6.1 81 81 undefined N/A 29.97 1015 N/A 0 0
9:54 pm 21:54 undefined 26 -3.3 21 -6.1 81 81 undefined N/A 30.06 1018 N/A 0 0
10:54 pm 22:54 undefined 25 -3.9 21 -6.1 85 85 undefined N/A 29.94 1014 N/A 0 0
11:54 pm 23:54 undefined 25 -3.9 21 -6.1 85 85 undefined N/A 29.97 1015 N/A 0 0

Powered by AerisWeather